KC5EZZ-2 Weather Reports


time (UTC)temp
C
wind
direction
speed
KPH
gust
KPH
rain 1hr
cm
rain 24hr
cm
rain mn
cm
humidity
%
barometer
mb
20260505173427 32 281 11.3 12.9 0.00 0.00 0.00
20260505172924 32 243 11.3 9.7 0.00 0.00 0.00
20260505172425 32 245 4.8 4.8 0.00 0.00 0.00
20260505171925 31 203 9.7 11.3 0.00 0.00 0.00
20260505171422 31 165 8.0 6.4 0.00 0.00 0.00
20260505170923 31 191 9.7 6.4 0.00 0.00 0.00
20260505170423 30 232 9.7 8.0 0.00 0.00 0.00
20260505165920 30 253 8.0 8.0 0.00 0.00 0.00
20260505165534 29 236 12.9 11.3 0.00 0.00 0.00
20260505165421 29 236 12.9 11.3 0.00 0.00 0.00
20260505164921 28 211 12.9 9.7 0.00 0.00 0.00
20260505164519 28 203 16.1 16.1 0.00 0.00 0.00
20260505164419 28 203 16.1 16.1 0.00 0.00 0.00
20260505163919 28 222 12.9 17.7 0.00 0.00 0.00
20260505163420 28 232 19.3 14.5 0.00 0.00 0.00
20260505162917 28 205 11.3 19.3 0.00 0.00 0.00
20260505162417 27 197 14.5 9.7 0.00 0.00 0.00
20260505161918 27 197 12.9 12.9 0.00 0.00 0.00
20260505161415 26 225 17.7 16.1 0.00 0.00 0.00
20260505160915 26 194 17.7 16.1 0.00 0.00 0.00
20260505160415 26 218 17.7 14.5 0.00 0.00 0.00
20260505152908 26 198 14.5 12.9 0.00 0.00 0.00
20260505152408 26 180 11.3 9.7 0.00 0.00 0.00
20260505151909 26 198 9.7 14.5 0.00 0.00 0.00
20260505151406 25 195 12.9 12.9 0.00 0.00 0.00
20260505150407 25 172 12.9 12.9 0.00 0.00 0.00
20260505140358 22 193 16.1 22.5 0.00 0.00 0.00
20260505124847 20 225 11.3 11.3 0.00 0.00 0.00
20260505124421 20 191 11.3 14.5 0.00 0.00 0.00
20260505124345 20 191 11.3 14.5 0.00 0.00 0.00
20260505123845 20 191 12.9 20.9 0.00 0.00 0.00
20260505123346 20 203 14.5 14.5 0.00 0.00 0.00
20260505122843 20 210 12.9 9.7 0.00 0.00 0.00
20260505122344 20 197 12.9 14.5 0.00 0.00 0.00
20260505121844 20 200 17.7 17.7 0.00 0.00 0.00
20260505121340 20 208 17.7 12.9 0.00 0.00 0.00
20260505120923 20 188 19.3 24.1 0.00 0.00 0.00
20260505120840 20 188 19.3 24.1 0.00 0.00 0.00
20260505120341 19 204 17.7 16.1 0.00 0.00 0.00
20260505115847 20 188 17.7 14.5 0.00 0.00 0.00
20260505115838 20 188 17.7 14.5 0.00 0.00 0.00
20260505115434 20 183 19.3 14.5 0.00 0.00 0.00
20260505115339 20 183 19.3 14.5 0.00 0.00 0.00
20260505114839 19 224 16.1 20.9 0.00 0.00 0.00
20260505114336 19 188 16.1 16.1 0.00 0.00 0.00
20260505113836 19 188 12.9 17.7 0.00 0.00 0.00
20260505113337 19 201 14.5 12.9 0.00 0.00 0.00
20260505112834 19 205 12.9 17.7 0.00 0.00 0.00
20260505112335 19 177 11.3 12.9 0.00 0.00 0.00
20260505111835 19 233 11.3 12.9 0.00 0.00 0.00
20260505111333 19 188 9.7 11.3 0.00 0.00 0.00
20260505110833 20 245 9.7 11.3 0.00 0.00 0.00
20260505110408 20 194 12.9 14.5 0.00 0.00 0.00
20260505110333 20 194 12.9 14.5 0.00 0.00 0.00
20260505101828 20 194 14.5 12.9 0.00 0.00 0.00
20260505101414 20 191 11.3 14.5 0.00 0.00 0.00
20260505101325 20 191 11.3 14.5 0.00 0.00 0.00
20260505100826 20 170 14.5 14.5 0.00 0.00 0.00
20260505100326 20 172 14.5 11.3 0.00 0.00 0.00
20260505095824 20 191 16.1 14.5 0.00 0.00 0.00
20260505095324 20 194 16.1 17.7 0.00 0.00 0.00
20260505094825 20 203 14.5 16.1 0.00 0.00 0.00
20260505094401 20 187 17.7 19.3 0.00 0.00 0.00
20260505094323 20 187 17.7 19.3 0.00 0.00 0.00
20260505093324 20 195 14.5 12.9 0.00 0.00 0.00
20260505092821 20 176 12.9 14.5 0.00 0.00 0.00
20260505092322 20 184 16.1 16.1 0.00 0.00 0.00
20260505091822 21 204 16.1 12.9 0.00 0.00 0.00
20260505091319 20 205 14.5 9.7 0.00 0.00 0.00
20260505090820 21 197 17.7 20.9 0.00 0.00 0.00
20260505090320 20 194 14.5 17.7 0.00 0.00 0.00
20260505085817 20 198 14.5 14.5 0.00 0.00 0.00
20260505085318 20 201 19.3 12.9 0.00 0.00 0.00
20260505084818 20 219 12.9 12.9 0.00 0.00 0.00
20260505084316 21 205 12.9 11.3 0.00 0.00 0.00
20260505083816 21 176 19.3 19.3 0.00 0.00 0.00
20260505083317 21 211 17.7 16.1 0.00 0.00 0.00
20260505082814 21 207 14.5 16.1 0.00 0.00 0.00
20260505082350 21 194 14.5 16.1 0.00 0.00 0.00
20260505082316 21 194 14.5 16.1 0.00 0.00 0.00
20260505081857 21 170 16.1 14.5 0.00 0.00 0.00
20260505081815 21 170 16.1 14.5 0.00 0.00 0.00
20260505081313 21 173 19.3 19.3 0.00 0.00 0.00
20260505080813 21 207 16.1 9.7 0.00 0.00 0.00
20260505080314 21 198 20.9 16.1 0.00 0.00 0.00
20260505075811 21 207 16.1 16.1 0.00 0.00 0.00
20260505075312 21 186 19.3 19.3 0.00 0.00 0.00
20260505074812 21 193 16.1 20.9 0.00 0.00 0.00
20260505074310 21 204 17.7 27.4 0.00 0.00 0.00
20260505073810 21 170 20.9 14.5 0.00 0.00 0.00
20260505073311 21 183 25.7 22.5 0.00 0.00 0.00
20260505072808 21 183 20.9 22.5 0.00 0.00 0.00
20260505072309 21 195 22.5 19.3 0.00 0.00 0.00
20260505071809 21 158 24.1 17.7 0.00 0.00 0.00
20260505071307 21 184 19.3 17.7 0.00 0.00 0.00
20260505070807 21 193 16.1 19.3 0.00 0.00 0.00
20260505070307 21 176 19.3 20.9 0.00 0.00 0.00
20260505065805 21 193 20.9 20.9 0.00 0.00 0.00
20260505065305 21 177 16.1 11.3 0.00 0.00 0.00
20260505064806 21 184 20.9 22.5 0.00 0.00 0.00
20260505064303 21 203 17.7 12.9 0.00 0.00 0.00
20260505063804 21 204 17.7 14.5 0.00 0.00 0.00
20260505063304 21 167 17.7 17.7 0.00 0.00 0.00
20260505062801 21 169 20.9 17.7 0.00 0.00 0.00
20260505062301 22 169 20.9 22.5 0.00 0.00 0.00
20260505061801 22 190 17.7 16.1 0.00 0.00 0.00
20260505061259 22 163 17.7 17.7 0.00 0.00 0.00
20260505060759 22 177 19.3 17.7 0.00 0.00 0.00
20260505060300 22 166 17.7 19.3 0.00 0.00 0.00
20260505055757 22 188 19.3 29.0 0.00 0.00 0.00
20260505055258 22 141 17.7 22.5 0.00 0.00 0.00
20260505054758 22 176 22.5 19.3 0.00 0.00 0.00
20260505054256 22 163 19.3 19.3 0.00 0.00 0.00
20260505053756 22 170 27.4 17.7 0.00 0.00 0.00
20260505053257 22 188 19.3 24.1 0.00 0.00 0.00
20260505052754 22 167 16.1 20.9 0.00 0.00 0.00
20260505052255 22 193 22.5 30.6 0.00 0.00 0.00
20260505051755 22 177 20.9 24.1 0.00 0.00 0.00
20260505051253 22 153 25.7 19.3 0.00 0.00 0.00
20260505050753 22 166 19.3 19.3 0.00 0.00 0.00
20260505050255 22 180 20.9 17.7 0.00 0.00 0.00
20260505041748 23 173 20.9 19.3 0.00 0.00 0.00
20260505041246 23 194 17.7 19.3 0.00 0.00 0.00
20260505040746 23 162 22.5 20.9 0.00 0.00 0.00
20260505040246 23 124 17.7 20.9 0.00 0.00 0.00
20260505035846 23 193 19.3 16.1 0.00 0.00 0.00
20260505035744 23 193 19.3 16.1 0.00 0.00 0.00
20260505035359 23 170 17.7 22.5 0.00 0.00 0.00
20260505035244 23 170 17.7 22.5 0.00 0.00 0.00
20260505034745 24 165 17.7 16.1 0.00 0.00 0.00
20260505034242 23 210 17.7 22.5 0.00 0.00 0.00
20260505034002 24 149 19.3 16.1 0.00 0.00 0.00
20260505033743 24 149 19.3 16.1 0.00 0.00 0.00
20260505033243 24 162 17.7 24.1 0.00 0.00 0.00
20260505032741 24 186 19.3 22.5 0.00 0.00 0.00
20260505032241 24 160 19.3 17.7 0.00 0.00 0.00
20260505031742 24 184 17.7 11.3 0.00 0.00 0.00
20260505031239 24 172 19.3 16.1 0.00 0.00 0.00
20260505030740 25 158 17.7 20.9 0.00 0.00 0.00
20260505030240 25 193 14.5 14.5 0.00 0.00 0.00
20260505025738 25 146 12.9 12.9 0.00 0.00 0.00
20260505025238 25 191 16.1 12.9 0.00 0.00 0.00
20260505024739 25 184 20.9 17.7 0.00 0.00 0.00
20260505024236 25 174 14.5 12.9 0.00 0.00 0.00
20260505023737 25 190 16.1 12.9 0.00 0.00 0.00
20260505023237 25 167 16.1 19.3 0.00 0.00 0.00
20260505022734 25 190 14.5 11.3 0.00 0.00 0.00
20260505022235 25 176 16.1 22.5 0.00 0.00 0.00
20260505021735 25 148 22.5 19.3 0.00 0.00 0.00
20260505021233 26 173 16.1 17.7 0.00 0.00 0.00
20260505020733 26 155 16.1 17.7 0.00 0.00 0.00
20260505020234 26 162 19.3 17.7 0.00 0.00 0.00
20260505015731 26 174 14.5 24.1 0.00 0.00 0.00
20260505015232 26 158 12.9 14.5 0.00 0.00 0.00
20260505014732 26 172 16.1 14.5 0.00 0.00 0.00
20260505014230 26 177 16.1 20.9 0.00 0.00 0.00
20260505013730 26 177 12.9 11.3 0.00 0.00 0.00
20260505013231 26 169 12.9 11.3 0.00 0.00 0.00
20260505012728 26 143 14.5 19.3 0.00 0.00 0.00
20260505012229 27 172 16.1 16.1 0.00 0.00 0.00
20260505011729 27 197 16.1 14.5 0.00 0.00 0.00
20260505011227 27 184 14.5 12.9 0.00 0.00 0.00
20260505010227 28 186 16.1 11.3 0.00 0.00 0.00
20260505005226 28 212 19.3 16.1 0.00 0.00 0.00
20260505004726 28 187 17.7 19.3 0.00 0.00 0.00
20260505004224 28 183 19.3 22.5 0.00 0.00 0.00
20260505003724 28 190 20.9 22.5 0.00 0.00 0.00
20260505003225 28 201 12.9 14.5 0.00 0.00 0.00
20260505002722 28 162 14.5 20.9 0.00 0.00 0.00
20260505002223 29 188 16.1 22.5 0.00 0.00 0.00
20260505001723 29 208 14.5 17.7 0.00 0.00 0.00
20260505001221 29 173 16.1 17.7 0.00 0.00 0.00
20260505000721 29 207 16.1 17.7 0.00 0.00 0.00
20260505000221 30 198 17.7 14.5 0.00 0.00 0.00
20260504235219 30 204 19.3 17.7 0.00 0.00 0.00
20260504234720 30 215 16.1 9.7 0.00 0.00 0.00
20260504234217 30 180 19.3 16.1 0.00 0.00 0.00
20260504233718 31 208 14.5 17.7 0.00 0.00 0.00
20260504233218 31 158 24.1 25.7 0.00 0.00 0.00
20260504232716 31 179 19.3 25.7 0.00 0.00 0.00
20260504232216 31 203 25.7 25.7 0.00 0.00 0.00
20260504231716 31 152 14.5 12.9 0.00 0.00 0.00
20260504231214 31 208 20.9 14.5 0.00 0.00 0.00
20260504230714 31 180 20.9 14.5 0.00 0.00 0.00
20260504230214 31 184 20.9 29.0 0.00 0.00 0.00
20260504225712 31 173 22.5 25.7 0.00 0.00 0.00
20260504225212 32 174 24.1 19.3 0.00 0.00 0.00
20260504224712 32 193 22.5 22.5 0.00 0.00 0.00
20260504224210 31 221 24.1 27.4 0.00 0.00 0.00
20260504223710 32 180 14.5 16.1 0.00 0.00 0.00
20260504223211 32 191 25.7 24.1 0.00 0.00 0.00
20260504222708 32 203 20.9 16.1 0.00 0.00 0.00
20260504222208 32 187 20.9 22.5 0.00 0.00 0.00
20260504221709 31 180 19.3 20.9 0.00 0.00 0.00
20260504221206 32 160 20.9 22.5 0.00 0.00 0.00
20260504220707 32 187 24.1 22.5 0.00 0.00 0.00
20260504220207 32 179 22.5 24.1 0.00 0.00 0.00
20260504215705 32 214 17.7 19.3 0.00 0.00 0.00
20260504215205 32 188 22.5 17.7 0.00 0.00 0.00
20260504214706 32 207 20.9 17.7 0.00 0.00 0.00
20260504214203 32 155 20.9 25.7 0.00 0.00 0.00
20260504213703 32 149 17.7 14.5 0.00 0.00 0.00
20260504213204 32 193 16.1 25.7 0.00 0.00 0.00
20260504212701 32 170 20.9 11.3 0.00 0.00 0.00
20260504212201 32 184 19.3 19.3 0.00 0.00 0.00
20260504211702 32 204 22.5 19.3 0.00 0.00 0.00
20260504211159 32 169 24.1 19.3 0.00 0.00 0.00
20260504210659 32 191 19.3 20.9 0.00 0.00 0.00
20260504210200 32 176 20.9 27.4 0.00 0.00 0.00
20260504205657 32 160 20.9 22.5 0.00 0.00 0.00
20260504205158 32 166 19.3 20.9 0.00 0.00 0.00
20260504204658 32 198 20.9 19.3 0.00 0.00 0.00
20260504204155 32 208 20.9 17.7 0.00 0.00 0.00
20260504203656 32 201 17.7 16.1 0.00 0.00 0.00
20260504203156 32 219 16.1 16.1 0.00 0.00 0.00
20260504202654 32 201 17.7 12.9 0.00 0.00 0.00
20260504202153 32 125 14.5 20.9 0.00 0.00 0.00
20260504201653 32 167 22.5 22.5 0.00 0.00 0.00
20260504201418 25 195 20.9 22.5 0.00 0.00 0.00
20260504201151 32 173 12.9 19.3 0.00 0.00 0.00
20260504200651 32 176 16.1 14.5 0.00 0.00 0.00
20260504200151 32 158 16.1 9.7 0.00 0.00 0.00
20260504195649 32 181 22.5 11.3 0.00 0.00 0.00
20260504195149 32 184 14.5 27.4 0.00 0.00 0.00
20260504194649 31 143 11.3 17.7 0.00 0.00 0.00
20260504194147 31 183 17.7 17.7 0.00 0.00 0.00
20260504193647 31 180 14.5 16.1 0.00 0.00 0.00
20260504193148 30 186 17.7 25.7 0.00 0.00 0.00
20260504192658 30 187 19.3 14.5 0.00 0.00 0.00
20260504192645 30 163 16.1 17.7 0.00 0.00 0.00
20260504192145 30 187 19.3 14.5 0.00 0.00 0.00
20260504191646 30 166 16.1 20.9 0.00 0.00 0.00
20260504191143 29 200 14.5 16.1 0.00 0.00 0.00
20260504190644 30 180 16.1 24.1 0.00 0.00 0.00
20260504190144 29 187 17.7 22.5 0.00 0.00 0.00
20260504185641 29 198 20.9 22.5 0.00 0.00 0.00
20260504185142 30 191 19.3 16.1 0.00 0.00 0.00
20260504184642 29 184 17.7 24.1 0.00 0.00 0.00
20260504184139 29 186 19.3 16.1 0.00 0.00 0.00
20260504183640 28 170 17.7 19.3 0.00 0.00 0.00
20260504183140 29 169 16.1 14.5 0.00 0.00 0.00
20260504182638 28 240 17.7 11.3 0.00 0.00 0.00
20260504182138 29 163 19.3 17.7 0.00 0.00 0.00
20260504181639 28 195 19.3 17.7 0.00 0.00 0.00
20260504181136 28 208 24.1 12.9 0.00 0.00 0.00
20260504180637 27 218 24.1 16.1 0.00 0.00 0.00
20260504180137 28 167 19.3 22.5 0.00 0.00 0.00
20260504175634 28 208 17.7 16.1 0.00 0.00 0.00
20260504175135 28 193 19.3 20.9 0.00 0.00 0.00
20260504174635 27 167 14.5 17.7 0.00 0.00 0.00
20260504174133 27 160 19.3 24.1 0.00 0.00 0.00
20260504173630 27 187 17.7 14.5 0.00 0.00 0.00